Location: Goettingen
(51.5300°N, 9.9433°E)
Time: 23:38:44
(UTC+02:00)

ISS - Visible Passes

Search period start: 05 May 2021 00:00
Search period end: 15 May 2021 00:00
Orbit: 418 x 421 km, 51.6° (Epoch: 05 May)

Date Brightness Start Highest point End Pass type
(mag) Time Alt. Az. Time Alt. Az. Time Alt. Az.
05 May -3.4 03:34:13 39° SSW 03:34:57 47° SSE 03:38:13 10° E visible
06 May -2.6 02:48:19 31° ESE 02:48:19 31° ESE 02:50:44 10° E visible
06 May -3.8 04:21:16 13° W 04:24:14 86° S 04:27:38 10° E visible
07 May -1.3 02:02:24 15° E 02:02:24 15° E 02:03:10 10° E visible
07 May -3.8 03:35:20 31° WSW 03:36:49 75° SSE 03:40:12 10° E visible
08 May -3.8 02:49:24 61° SSE 02:49:25 61° SSE 02:52:46 10° E visible
08 May -3.7 04:22:49 10° W 04:26:13 86° N 04:29:37 10° E visible
09 May -2.3 02:03:25 28° E 02:03:25 28° E 02:05:18 10° E visible
09 May -3.8 03:36:21 18° W 03:38:45 87° N 03:42:09 10° E visible
10 May -1.1 01:17:25 12° E 01:17:25 12° E 01:17:48 10° E visible
10 May -3.9 02:50:21 44° WSW 02:51:18 87° S 02:54:42 10° E visible
10 May -3.8 04:24:45 10° W 04:28:09 81° SSW 04:31:33 10° ESE visible
11 May -3.6 02:04:19 62° ESE 02:04:19 62° ESE 02:07:15 10° E visible
11 May -3.8 03:37:19 10° W 03:40:42 90° NNW 03:44:06 10° E visible
12 May -2.1 01:18:14 25° E 01:18:14 25° E 01:19:49 10° E visible
12 May -3.8 02:51:09 22° W 02:53:15 86° N 02:56:39 10° E visible
12 May -3.6 04:26:42 10° W 04:30:01 53° SSW 04:33:19 10° SE visible
13 May -1.2 00:32:03 12° E 00:32:03 12° E 00:32:20 10° E visible
13 May -3.8 02:04:58 49° W 02:05:47 87° N 02:09:11 10° E visible
13 May -3.8 03:39:14 10° W 03:42:36 68° SSW 03:45:58 10° ESE visible
14 May -3.8 01:18:34 76° E 01:18:34 76° E 01:21:43 10° E visible
14 May -3.9 02:51:47 10° W 02:55:10 81° S 02:58:34 10° ESE visible
14 May -2.9 04:28:44 10° W 04:31:44 29° SSW 04:34:42 10° SSE visible
14 May -2.8 22:51:32 10° SSW 22:54:22 26° SSE 22:55:35 21° ESE visible
